[[{"header":{"parameterUnit":"m.s-1","parameterCategory":1,"la1":30.2991,"la2":30.254,"lo1":-89.0895,"lo2":-89.0444,"dy":0.0017,"dx":0.0017,"nx":28,"ny":28,"refTime":"2023-09-28T21:00:00:Z","depth":0,"parameterNumber":2,"parameterNumberName":"U-component_of_WINDS"},"data":[0,0,0,0,0,0,0,0,0,0,0,0,0,0,0,0,0,0,0,0,0,0,0,0,0,0,0,0,0,0,0,0,0,0,0,0,0,0,0,0,0,0,0,0,0,0,0,0,0,0,0,0,0,0,0,0,0,0,-3.8858,-3.8859,0,-3.891,-3.891,-3.8911,-3.8858,-3.8856,-3.8854,-3.8852,-3.8906,-3.8909,-3.8912,0,0,0,0,0,0,0,0,0,0,0,0,0,-3.8717,-3.872,-3.8858,-3.8859,-3.8859,-3.8909,-3.891,-3.8911,-3.8859,-3.8856,-3.8854,-3.8851,-3.8905,-3.8909,-3.8913,0,0,0,0,0,0,0,0,0,0,0,0,0,-3.8774,-3.8721,-3.8858,-3.8839,-3.8838,-3.8909,-3.891,-3.8911,-3.8859,-3.8856,-3.8853,-3.885,-3.8903,-3.8908,-3.8913,-3.9005,0,0,-3.8928,-3.8931,0,0,0,0,0,0,0,0,-3.8771,-3.878,-3.8842,-3.8841,-3.884,-3.8874,-3.888,-3.8943,-3.886,-3.8851,-3.8852,-3.8849,-3.8898,-3.8903,-3.892,-3.9008,-3.901,-3.8929,-3.8932,-3.8934,-3.8936,0,0,0,0,0,0,0,-3.8767,-3.8777,-3.8878,-3.8842,-3.8841,-3.8829,-3.8834,-3.8892,-3.8891,-3.8852,-3.8848,-3.8855,-3.8897,-3.8915,-3.892,-3.9011,-3.8929,-3.8933,-3.8936,-3.8938,-3.9181,-3.9184,0,0,0,0,0,0,-3.8765,-3.8774,-3.8877,-3.888,-3.8797,-3.8834,-3.884,-3.8866,-3.889,-3.8891,-3.8857,-3.8852,-3.8908,-3.8915,-3.8922,-3.9034,-3.8934,-3.8939,-3.8942,-3.9178,-3.9182,-3.9185,0,0,0,0,0,0,-3.8762,-3.8775,-3.8875,-3.8826,-3.8838,-3.884,-3.887,-3.8869,-3.8887,-3.8895,-3.8894,-3.8876,-3.8906,-3.8915,-3.8986,-3.9035,-3.8941,-3.8946,-3.9173,-3.9179,-3.9184,-3.9257,0,0,0,0,0,0,-3.8758,-3.8774,-3.8808,-3.8827,-3.8841,-3.8937,-3.8873,-3.8872,-3.8896,-3.8889,-3.8912,-3.8913,-3.8904,-3.8979,-3.8991,-3.904,-3.8949,-3.9169,-3.9176,-3.9182,-3.9251,-3.9265,-3.9276,0,0,0,0,0,-3.8754,-3.8827,-3.881,-3.8823,-3.8884,-3.894,-3.8948,-3.8936,-3.89,-3.8935,-3.894,-3.8912,-3.9027,-3.8986,-3.8999,-3.9051,-3.9166,-3.9174,-3.9181,-3.9245,-3.9262,-3.9276,0,0,0,0,0,0,-3.8813,-3.8829,-3.8811,-3.8892,-3.8915,-3.8931,-3.8975,-3.8954,-3.8988,-3.898,-3.8964,-3.897,-3.9046,-3.9055,-3.9009,-3.9143,-3.9091,-3.9102,-3.9135,-3.9151,-3.9163,-3.9161,-3.8954,0,0,0,0,0,-3.8836,-3.888,-3.8891,-3.8962,-3.8974,-3.8973,-3.8997,-3.8986,-3.9009,-3.9019,-3.9029,-3.9053,-3.9095,-3.9123,-3.9162,-3.9251,-3.9257,-3.9294,-3.9307,-3.9317,-3.9327,-3.9378,-3.9396,-3.9211,-3.9211,-3.9211,0,0,-3.8883,-3.8897,-3.8926,-3.8974,-3.8991,-3.9038,-3.8981,-3.9033,-3.9068,-3.9027,-3.9095,-3.9103,-3.9129,-3.9211,-3.9247,-3.9221,-3.9379,-3.9327,-3.9335,-3.934,-3.9388,-3.9406,-3.9421,-3.9216,-3.9215,-3.9214,0,0,-3.8994,-3.9008,-3.907,-3.9088,-3.9114,-3.9113,-3.9128,-3.9147,-3.9152,-3.922,-3.919,-3.9232,-3.9304,-3.9325,-3.9345,-3.9466,-3.9442,-3.9479,-3.9547,-3.9597,-3.9611,-3.9624,-3.967,-3.9686,-3.9488,-3.9488,-3.9489,0,-3.9049,-3.9119,-3.9104,-3.9159,-3.9182,-3.9147,-3.921,-3.9229,-3.9266,-3.9284,-3.9254,-3.9345,-3.936,-3.9447,-3.9477,-3.9493,-3.9512,-3.9477,-3.961,-3.9623,-3.9635,-3.9679,-3.9696,-3.9493,-3.9492,-3.9492,-3.9492,0,-3.9187,-3.9236,-3.9282,-3.9321,-3.9349,-3.9408,-3.9403,-3.9434,-3.9421,-3.9423,-3.9495,-3.9511,-3.9554,-3.9574,-3.9561,-3.966,-3.9644,-3.9612,-3.956,-3.9657,-3.9698,-3.9715,-3.9499,-3.9498,-3.9496,-3.9495,0,0,-3.9337,-3.9367,-3.9385,-3.9403,-3.943,-3.9468,-3.9526,-3.9568,-3.9596,-3.9623,-3.9673,-3.9736,-3.9708,-3.973,-3.972,-3.9763,-3.9862,-3.9727,-3.9727,-3.9754,-3.9976,-4.0001,-4.002,-3.9846,-3.9849,-3.9851,-3.9975,0,-3.945,-3.9551,-3.954,-3.9637,-3.9683,-3.9651,-3.9702,-3.9725,-3.9729,-3.977,-3.9774,-3.982,-3.9778,-3.9792,-3.9834,-3.9841,-3.9907,-3.9832,-3.9894,-3.9896,-3.9891,-4.0041,-4.0068,-4.0183,-3.999,-3.9993,-3.9995,0,-3.9596,-3.963,-3.9731,-3.9754,-3.9773,-3.9818,-3.9858,-3.9896,-3.9922,-3.9923,-3.9949,-3.9932,-3.9992,-3.9937,-4.0021,-3.997,-3.9995,-4.0003,-4.0007,-4.0014,-3.9953,-4.0055,-4.0219,-4.0238,-4.0019,-4.0017,-4.0015,0,-3.9699,-3.9769,-3.984,-3.9856,-3.9883,-3.9916,-3.9929,-3.9952,-3.9979,-4.0014,-4.0032,-4.0072,-4.0095,-4.0128,-4.0123,-4.0083,-4.021,-4.0153,-4.0214,-4.0214,-4.0243,-4.0242,-4.0417,-4.0255,-4.0255,-4.0255,-4.0254,0,-3.9828,-3.9892,-3.9886,-3.993,-4.0002,-3.9989,-4.0061,-4.0069,-4.0091,-4.0137,-4.0111,-4.0155,-4.0144,-4.0188,-4.0184,-4.0256,-4.0266,-4.027,-4.0268,-4.0273,-4.0273,-4.0291,-4.0284,-4.0259,-4.0258,-4.0258,-4.0257,0,-3.9955,-3.9954,-4.0029,-4.0049,-4.0056,-4.0108,-4.0126,-4.0168,-4.017,-4.0229,-4.0242,-4.0246,-4.0297,-4.0295,-4.0352,-4.0349,-4.0439,-4.0427,-4.0431,-4.0429,-4.0491,-4.0486,-4.0685,-4.0711,-4.053,-4.0532,-4.0533,0,-4.0039,-4.0087,-4.0113,-4.0142,-4.0158,-4.0205,-4.0232,-4.0223,-4.0253,-4.0288,-4.0326,-4.0374,-4.0413,-4.0496,-4.0505,-4.0549,-4.054,-4.0606,-4.0546,-4.0551,-4.0544,-4.0543,-4.0549,-4.0619,-4.0621,-4.0622,-4.0624,0,-4.0188,-4.0186,-4.0227,-4.0269,-4.0303,-4.0335,-4.0365,-4.039,-4.0383,-4.0419,-4.0471,-4.0501,-4.056,-4.0609,-4.0652,-4.0667,-4.0646,-4.0642,-4.0659,-4.0666,-4.0668,-4.0671,-4.0466,-4.0638,-4.0637,-4.0636,-4.0635,-4.0634,-4.0298,-4.0341,-4.0367,-4.0414,-4.0436,-4.0465,-4.0506,-4.0514,-4.0557,-4.0605,-4.0596,-4.0655,-4.0682,-4.0738,-4.0756,-4.0803,-4.078,-4.0803,-4.081,-4.0817,-4.0825,-4.0658,-4.0811,-4.081,-4.081,-4.081,-4.0809,0,-4.0449,-4.0465,-4.0508,-4.0551,-4.0589,-4.0565,-4.0597,-4.063,-4.0683,-4.0709,-4.0748,-4.0809,-4.0858,-4.0871,-4.0918,-4.0953,-4.0945,-4.0966,-4.0965,-4.0969,-4.0842,-4.0824,-4.0972,-4.0972,-4.0972,-4.0972,-4.0972,-4.0972,-4.0532,-4.0605,-4.0606,-4.069,-4.0704,-4.0762,-4.0783,-4.081,-4.0832,-4.0901,-4.0941,-4.0949,-4.0972,-4.1021,-4.1065,-4.1068,-4.1087,-4.1113,-4.1113,-4.0994,-4.0978,-4.0962,-4.0945,-4.1117,-4.1117,-4.1236,-4.1238,-4.1238]},{"header":{"parameterUnit":"m.s-1","parameterCategory":1,"la1":30.2991,"la2":30.254,"lo1":-89.0895,"lo2":-89.0444,"dy":0.0017,"dx":0.0017,"nx":28,"ny":28,"refTime":"2023-09-28T21:00:00:Z","depth":0,"parameterNumber":3,"parameterNumberName":"V-component_of_WINDS"},"data":[0,0,0,0,0,0,0,0,0,0,0,0,0,0,0,0,0,0,0,0,0,0,0,0,0,0,0,0,0,0,0,0,0,0,0,0,0,0,0,0,0,0,0,0,0,0,0,0,0,0,0,0,0,0,0,0,0,0,-1.923,-1.923,0,-1.9225,-1.9225,-1.9225,-1.9176,-1.9175,-1.9174,-1.9173,-1.9168,-1.9169,-1.917,0,0,0,0,0,0,0,0,0,0,0,0,0,-1.9199,-1.92,-1.923,-1.923,-1.923,-1.9225,-1.9225,-1.9225,-1.9177,-1.9175,-1.9174,-1.9172,-1.9168,-1.9169,-1.917,0,0,0,0,0,0,0,0,0,0,0,0,0,-1.9205,-1.92,-1.923,-1.9205,-1.9203,-1.9225,-1.9225,-1.9225,-1.9177,-1.9175,-1.9173,-1.9172,-1.9167,-1.9169,-1.917,-1.9216,0,0,-1.9175,-1.9175,0,0,0,0,0,0,0,0,-1.9205,-1.9206,-1.9209,-1.9207,-1.9205,-1.9199,-1.9212,-1.9222,-1.9177,-1.9187,-1.9173,-1.9171,-1.918,-1.918,-1.9183,-1.9215,-1.9215,-1.9175,-1.9176,-1.9176,-1.9177,0,0,0,0,0,0,0,-1.9204,-1.9206,-1.9228,-1.9209,-1.9206,-1.9194,-1.9193,-1.9213,-1.9194,-1.9186,-1.9182,-1.9182,-1.9178,-1.9182,-1.9183,-1.9215,-1.9175,-1.9176,-1.9177,-1.9178,-1.9284,-1.9286,0,0,0,0,0,0,-1.9207,-1.9206,-1.9228,-1.9228,-1.92,-1.9197,-1.9195,-1.9203,-1.9193,-1.919,-1.9184,-1.918,-1.918,-1.9181,-1.9182,-1.9235,-1.9176,-1.9178,-1.9179,-1.9282,-1.9284,-1.9286,0,0,0,0,0,0,-1.9207,-1.921,-1.9228,-1.9216,-1.9217,-1.9199,-1.9208,-1.9204,-1.9207,-1.9192,-1.9188,-1.9191,-1.9179,-1.918,-1.9208,-1.9234,-1.9179,-1.918,-1.928,-1.9283,-1.9285,-1.934,0,0,0,0,0,0,-1.9206,-1.921,-1.9227,-1.9217,-1.9218,-1.9254,-1.921,-1.9205,-1.921,-1.9205,-1.9198,-1.9195,-1.9178,-1.9206,-1.9209,-1.9235,-1.9181,-1.9277,-1.9281,-1.9284,-1.9336,-1.9345,-1.9352,0,0,0,0,0,-1.9205,-1.9243,-1.9228,-1.9231,-1.9239,-1.9255,-1.9256,-1.9236,-1.9212,-1.9229,-1.9219,-1.9195,-1.923,-1.9209,-1.9212,-1.9239,-1.9275,-1.928,-1.9284,-1.9333,-1.9343,-1.9352,0,0,0,0,0,0,-1.9257,-1.9241,-1.9224,-1.926,-1.9259,-1.9247,-1.9268,-1.9248,-1.9254,-1.9249,-1.9223,-1.9222,-1.9253,-1.9249,-1.9225,-1.9282,-1.9249,-1.9254,-1.9284,-1.9294,-1.9302,-1.9303,-1.9182,0,0,0,0,0,-1.9273,-1.9287,-1.9272,-1.9305,-1.9306,-1.9287,-1.9293,-1.9277,-1.9276,-1.9275,-1.9267,-1.9267,-1.9278,-1.9286,-1.9295,-1.9335,-1.9333,-1.9355,-1.9363,-1.937,-1.9375,-1.9396,-1.9406,-1.93,-1.93,-1.93,0,0,-1.9305,-1.9298,-1.9309,-1.9315,-1.9313,-1.9329,-1.9287,-1.9305,-1.9317,-1.9278,-1.9303,-1.9297,-1.9295,-1.9329,-1.9344,-1.9326,-1.9403,-1.9375,-1.9381,-1.9382,-1.9401,-1.9411,-1.942,-1.9303,-1.9303,-1.9302,0,0,-1.9373,-1.9369,-1.9395,-1.9394,-1.939,-1.9378,-1.9384,-1.9375,-1.9369,-1.9394,-1.9365,-1.9378,-1.9398,-1.9397,-1.94,-1.9466,-1.9444,-1.9469,-1.9512,-1.9533,-1.9541,-1.9548,-1.9572,-1.9581,-1.9474,-1.9475,-1.9475,0,-1.9414,-1.9436,-1.9412,-1.9432,-1.9436,-1.9401,-1.9428,-1.9427,-1.9427,-1.9431,-1.9411,-1.9435,-1.9431,-1.9464,-1.948,-1.9483,-1.949,-1.9471,-1.9542,-1.9549,-1.9555,-1.9578,-1.9587,-1.9478,-1.9477,-1.9477,-1.9477,0,-1.9486,-1.9502,-1.9524,-1.9525,-1.9531,-1.9554,-1.9534,-1.9543,-1.9526,-1.9516,-1.9541,-1.9535,-1.9542,-1.9549,-1.9533,-1.958,-1.9569,-1.9546,-1.9512,-1.9569,-1.959,-1.9598,-1.9482,-1.9481,-1.948,-1.9479,0,0,-1.9588,-1.9574,-1.9583,-1.9582,-1.9576,-1.9587,-1.9609,-1.9616,-1.9624,-1.9625,-1.9643,-1.966,-1.9638,-1.9641,-1.9624,-1.9642,-1.9695,-1.9617,-1.9616,-1.9632,-1.9747,-1.9766,-1.9776,-1.968,-1.9682,-1.9683,-1.9748,0,-1.9653,-1.9689,-1.9668,-1.9708,-1.9722,-1.9688,-1.9707,-1.9705,-1.9696,-1.9706,-1.9695,-1.9708,-1.9678,-1.968,-1.9696,-1.9686,-1.9718,-1.968,-1.9697,-1.9698,-1.97,-1.9787,-1.9806,-1.9868,-1.9756,-1.9757,-1.9758,0,-1.9734,-1.9738,-1.9779,-1.9769,-1.9774,-1.9792,-1.9796,-1.9807,-1.9803,-1.9795,-1.9798,-1.9777,-1.9797,-1.9763,-1.9791,-1.9766,-1.9771,-1.9767,-1.9769,-1.977,-1.9732,-1.9792,-1.9887,-1.9896,-1.9771,-1.977,-1.9769,0,-1.9805,-1.982,-1.9847,-1.9847,-1.9836,-1.9849,-1.9845,-1.984,-1.9846,-1.9849,-1.9853,-1.9859,-1.9862,-1.9868,-1.9849,-1.9825,-1.988,-1.9843,-1.9874,-1.9875,-1.9888,-1.9888,-1.9986,-1.989,-1.989,-1.989,-1.989,0,-1.988,-1.9907,-1.9878,-1.9895,-1.9923,-1.9898,-1.9927,-1.992,-1.9915,-1.993,-1.9901,-1.9915,-1.9889,-1.99,-1.9885,-1.9911,-1.9913,-1.9907,-1.9903,-1.991,-1.9911,-1.9914,-1.991,-1.9892,-1.9892,-1.9891,-1.9891,0,-1.9965,-1.9946,-1.9973,-1.996,-1.9957,-1.9979,-1.9968,-1.9983,-1.997,-1.9989,-1.9992,-1.9973,-1.9985,-1.9966,-1.9977,-1.9966,-2.0003,-1.9992,-2.0004,-2.0001,-2.0033,-2.003,-2.0137,-2.015,-2.0045,-2.0046,-2.0047,0,-2.0015,-2.0034,-2.0023,-2.003,-2.0028,-2.004,-2.0045,-2.0021,-2.0028,-2.0025,-2.004,-2.005,-2.0056,-2.0077,-2.0064,-2.0072,-2.0061,-2.0098,-2.0062,-2.0069,-2.0063,-2.0062,-2.0064,-2.0106,-2.0107,-2.0108,-2.0109,0,-2.0106,-2.0095,-2.0103,-2.0109,-2.0115,-2.0118,-2.0119,-2.0127,-2.0101,-2.011,-2.0121,-2.0126,-2.0136,-2.0146,-2.015,-2.0146,-2.0124,-2.012,-2.0128,-2.0136,-2.0143,-2.014,-2.0025,-2.0118,-2.0117,-2.0117,-2.0116,-2.0116,-2.0175,-2.019,-2.0185,-2.0195,-2.0193,-2.0194,-2.0207,-2.0196,-2.0205,-2.0211,-2.0196,-2.0212,-2.0207,-2.0211,-2.0209,-2.0221,-2.0205,-2.0216,-2.0218,-2.0222,-2.0227,-2.014,-2.0221,-2.0221,-2.0221,-2.0221,-2.022,0,-2.0264,-2.0259,-2.0268,-2.027,-2.0278,-2.0255,-2.0254,-2.0263,-2.0276,-2.0274,-2.0281,-2.0294,-2.0304,-2.0291,-2.0299,-2.031,-2.03,-2.0313,-2.0313,-2.0312,-2.0241,-2.0234,-2.0321,-2.0321,-2.0321,-2.0321,-2.0321,-2.0321,-2.0312,-2.0338,-2.0327,-2.0351,-2.0345,-2.0359,-2.0361,-2.0362,-2.036,-2.0376,-2.0384,-2.0375,-2.0369,-2.0376,-2.0383,-2.0379,-2.0384,-2.04,-2.0393,-2.0327,-2.0317,-2.0308,-2.0301,-2.0401,-2.0402,-2.0464,-2.0464,-2.0465]}]]